Weather History for KPPA - March, 2013

Change the Weather History Date:

Friday, March 22, 2013

  Actual Average Record
Temperature  
Mean Temperature 42 °F -  
Max Temperature 54 °F 64 °F 82 °F (1988)
Min Temperature 30 °F 33 °F 14 °F (1983)
Degree Days  
Heating Degree Days 23    
Moisture  
Dew Point 30 °F    
Average Humidity 64    
Maximum Humidity 90    
Minimum Humidity 38    
Precipitation  
Precipitation 0.00 in - - ()
Sea Level Pressure  
Sea Level Pressure 29.82 in    
Wind  
Wind Speed 11 mph (ENE)    
Max Wind Speed 23 mph    
Max Gust Speed 30 mph    
Visibility 10 miles    
Events      
Averages and records for this station are not official NWS values.
T = Trace of Precipitation, MM = Missing Value Source: NWS Daily Summary

Daily Weather History Graph

Daily Weather History Graph

Search for Another Location

Airport or City:

Trip Planner

Search our weather history database for the weather conditions in past years. The results will help you decide how hot, cold, wet, or windy it might be!

Date:

Astronomy

Mar. 22, 2013 Rise Set
Actual Time 7:44 AM CDT 7:57 PM CDT
Civil Twilight 7:18 AM CDT 8:23 PM CDT
Nautical Twilight 6:49 AM CDT 8:52 PM CDT
Astronomical Twilight 6:18 AM CDT 9:23 PM CDT
Moon 3:34 PM CDT (3/22) 4:37 AM CDT (3/22)
Length of Visible Light 13h 04m
Length of Day
12h 13m
Waxing Gibbous, 77% of the Moon is Illuminated
Mar 22
Waxing Gibbous
Mar 27
Full
Apr 2
Last Quarter
Apr 10
New
Apr 18
First Quarter

Hourly Weather History & Observations

Time (CDT) Temp. Windchill Dew Point Humidity Pressure Visibility Wind Dir Wind Speed Gust Speed Precip Events Conditions
12:15 AM 42.4 °F 35.7 °F 36.7 °F 80% 29.67 in 10.0 mi ENE 12.7 mph 21.9 mph N/A   Clear
12:35 AM 41.0 °F 34.7 °F 35.6 °F 81% 29.69 in 10.0 mi NE 10.4 mph - N/A   Clear
12:55 AM 40.8 °F 33.3 °F 35.6 °F 82% 29.72 in 10.0 mi NE 13.8 mph - N/A   Mostly Cloudy
1:15 AM 38.7 °F 29.8 °F 32.9 °F 80% 29.73 in 10.0 mi NNE 16.1 mph - N/A   Overcast
1:35 AM 37.4 °F 27.8 °F 32.0 °F 81% 29.76 in 10.0 mi NNE 17.3 mph - N/A   Overcast
1:55 AM 35.6 °F 24.2 °F 30.9 °F 83% 29.77 in 10.0 mi NNE 21.9 mph 26.5 mph N/A   Overcast
2:15 AM 34.5 °F 22.5 °F 29.8 °F 83% 29.78 in 10.0 mi NNE 23.0 mph 28.8 mph N/A   Overcast
2:35 AM 33.8 °F 21.6 °F 29.7 °F 85% 29.79 in 10.0 mi NNE 23.0 mph - N/A   Overcast
2:55 AM 33.6 °F 21.3 °F 29.3 °F 84% 29.80 in 7.0 mi NNE 23.0 mph 27.6 mph N/A   Overcast
3:15 AM 32.2 °F 20.0 °F 28.8 °F 87% 29.81 in 5.0 mi NNE 20.7 mph 29.9 mph N/A   Overcast
7:35 AM 30.7 °F 22.6 °F 27.7 °F 88% 29.84 in 7.0 mi NNE 9.2 mph - N/A   Clear
7:55 AM 30.2 °F 21.9 °F 27.5 °F 90% 29.83 in 7.0 mi NNE 9.2 mph - N/A   Clear
8:15 AM 30.2 °F 22.6 °F 27.5 °F 90% 29.84 in 7.0 mi NNE 8.1 mph - N/A   Clear
8:35 AM 30.9 °F 23.5 °F 27.9 °F 88% 29.85 in 7.0 mi NNE 8.1 mph - N/A   Clear
8:55 AM 31.1 °F 26.4 °F 27.5 °F 87% 29.87 in 10.0 mi NNE 4.6 mph - N/A   Clear
9:15 AM 32.0 °F 26.4 °F 28.0 °F 85% 29.87 in 10.0 mi North 5.8 mph - N/A   Clear
9:35 AM 32.9 °F 25.9 °F 28.6 °F 84% 29.88 in 10.0 mi North 8.1 mph - N/A   Clear
9:55 AM 34.0 °F 28.8 °F 28.6 °F 81% 29.90 in 10.0 mi North 5.8 mph - N/A   Clear
10:15 AM 34.9 °F 29.9 °F 28.2 °F 77% 29.91 in 10.0 mi NNW 5.8 mph - N/A   Clear
10:35 AM 35.2 °F 28.1 °F 27.7 °F 74% 29.91 in 10.0 mi North 9.2 mph - N/A   Clear
10:55 AM 35.6 °F 29.2 °F 27.5 °F 72% 29.92 in 10.0 mi North 8.1 mph - N/A   Clear
11:15 AM 36.9 °F 31.4 °F 27.5 °F 69% 29.92 in 10.0 mi NNE 6.9 mph - N/A   Clear
11:35 AM 37.6 °F 32.3 °F 27.7 °F 67% 29.92 in 10.0 mi NNW 6.9 mph - N/A   Clear
11:55 AM 39.4 °F 35.2 °F 28.4 °F 65% 29.91 in 10.0 mi North 5.8 mph - N/A   Clear
12:15 PM 40.5 °F 36.5 °F 28.8 °F 63% 29.91 in 10.0 mi North 5.8 mph - N/A   Clear
12:35 PM 42.1 °F 38.4 °F 29.3 °F 61% 29.91 in 10.0 mi NNE 5.8 mph - N/A   Clear
12:55 PM 43.9 °F 42.3 °F 29.8 °F 58% 29.90 in 10.0 mi NNE 3.5 mph - N/A   Clear
1:15 PM 45.5 °F 40.8 °F 30.0 °F 55% 29.90 in 10.0 mi ENE 9.2 mph - N/A   Clear
1:35 PM 46.6 °F - 29.8 °F 52% 29.89 in 10.0 mi North 4.6 mph - N/A   Clear
1:55 PM 48.4 °F - 29.8 °F 49% 29.87 in 10.0 mi NE 6.9 mph - N/A   Clear
2:15 PM 50.7 °F - 29.5 °F 44% 29.86 in 10.0 mi NE 9.2 mph - N/A   Clear
2:35 PM 50.9 °F - 29.5 °F 44% 29.85 in 10.0 mi East 6.9 mph - N/A   Clear
2:55 PM 50.4 °F - 28.4 °F 43% 29.83 in 10.0 mi East 4.6 mph - N/A   Clear
3:15 PM 52.2 °F - 28.9 °F 41% 29.82 in 10.0 mi East 3.5 mph - N/A   Clear
3:35 PM 53.1 °F - 29.1 °F 40% 29.80 in 10.0 mi East 6.9 mph - N/A   Clear
3:55 PM 52.7 °F - 28.9 °F 40% 29.80 in 10.0 mi SSE 3.5 mph - N/A   Clear
4:15 PM 54.1 °F - 28.9 °F 38% 29.79 in 10.0 mi SE 9.2 mph - N/A   Clear
4:35 PM 53.6 °F - 29.3 °F 39% 29.79 in 10.0 mi East 4.6 mph - N/A   Clear
4:55 PM 54.5 °F - 29.7 °F 39% 29.78 in 10.0 mi SE 9.2 mph - N/A   Clear
5:15 PM 54.7 °F - 29.8 °F 39% 29.78 in 10.0 mi SE 5.8 mph - N/A   Clear
5:35 PM 53.2 °F - 30.2 °F 41% 29.78 in 7.0 mi SSE 8.1 mph - N/A   Clear
5:55 PM 54.0 °F - 30.4 °F 41% 29.76 in 10.0 mi SSE 9.2 mph - N/A   Clear
6:15 PM 54.0 °F - 30.2 °F 40% 29.77 in 10.0 mi SSE 9.2 mph - N/A   Clear
6:35 PM 53.2 °F - 30.2 °F 41% 29.77 in 10.0 mi SE 9.2 mph - N/A   Clear
6:55 PM 52.5 °F - 30.2 °F 42% 29.77 in 10.0 mi SE 8.1 mph - N/A   Clear
7:15 PM 51.3 °F - 30.2 °F 44% 29.78 in 10.0 mi SE 9.2 mph - N/A   Clear
7:35 PM 49.3 °F - 30.4 °F 48% 29.79 in 10.0 mi SSE 5.8 mph - N/A   Clear
7:55 PM 47.5 °F - 30.4 °F 52% 29.80 in 10.0 mi SE 6.9 mph - N/A   Clear
8:15 PM 46.6 °F - 30.6 °F 54% 29.80 in 10.0 mi SE 6.9 mph - N/A   Clear
8:35 PM 46.0 °F 41.0 °F 30.7 °F 55% 29.80 in 10.0 mi SE 10.4 mph - N/A   Clear
8:55 PM 44.6 °F 39.2 °F 31.1 °F 59% 29.80 in 10.0 mi SE 10.4 mph - N/A   Clear
9:15 PM 44.6 °F 38.8 °F 31.1 °F 59% 29.80 in 10.0 mi SE 11.5 mph - N/A   Clear
9:35 PM 43.7 °F 36.9 °F 31.1 °F 61% 29.80 in 10.0 mi SE 13.8 mph - N/A   Clear
9:55 PM 43.0 °F 36.8 °F 31.1 °F 63% 29.80 in 10.0 mi SE 11.5 mph - N/A   Clear
10:15 PM 42.1 °F 34.2 °F 31.6 °F 67% 29.79 in 10.0 mi SE 16.1 mph - N/A   Clear
10:35 PM 41.2 °F 33.7 °F 31.6 °F 69% 29.80 in 10.0 mi SE 13.8 mph 19.6 mph N/A   Clear
10:55 PM 40.3 °F 31.3 °F 31.6 °F 71% 29.80 in 10.0 mi SE 18.4 mph 23.0 mph N/A   Clear
11:15 PM 39.7 °F 30.3 °F 31.8 °F 73% 29.79 in 10.0 mi SE 19.6 mph - N/A   Clear
11:35 PM 39.2 °F 30.8 °F 31.8 °F 75% 29.78 in 10.0 mi SE 15.0 mph 19.6 mph N/A   Clear
11:55 PM 38.1 °F 29.5 °F 31.6 °F 77% 29.79 in 10.0 mi SE 15.0 mph - N/A   Clear